Year,Month,Day,Hour,Minute,Value (Times are PST for temperature in C)
2008,07,15,00,00,12.20
2008,07,15,00,01,12.20
2008,07,15,00,02,12.20
2008,07,15,00,03,12.20
2008,07,15,00,04,12.10
2008,07,15,00,05,12.10
2008,07,15,00,06,12.10
2008,07,15,00,07,12.00
2008,07,15,00,08,12.00
2008,07,15,00,09,12.00
2008,07,15,00,10,11.90
2008,07,15,00,11,11.90
2008,07,15,00,12,11.90
2008,07,15,00,13,11.90
2008,07,15,00,14,11.90
2008,07,15,00,15,11.90
2008,07,15,00,16,11.90
2008,07,15,00,17,11.90
2008,07,15,00,18,11.90
2008,07,15,00,19,11.90
2008,07,15,00,20,11.90
2008,07,15,00,21,11.90
2008,07,15,00,22,11.90
2008,07,15,00,23,11.90
2008,07,15,00,24,11.90
2008,07,15,00,25,11.90
2008,07,15,00,26,11.90
2008,07,15,00,27,12.00
2008,07,15,00,28,12.00
2008,07,15,00,29,12.00
2008,07,15,00,30,12.00
2008,07,15,00,31,12.10
2008,07,15,00,32,12.10
2008,07,15,00,33,12.10
2008,07,15,00,34,12.10
2008,07,15,00,35,12.20
2008,07,15,00,36,12.20
2008,07,15,00,37,12.20
2008,07,15,00,38,12.20
2008,07,15,00,39,12.20
2008,07,15,00,40,12.20
2008,07,15,00,41,12.20
2008,07,15,00,42,12.20
2008,07,15,00,43,12.20
2008,07,15,00,44,12.20
2008,07,15,00,45,12.20
2008,07,15,00,46,12.30
2008,07,15,00,47,12.30
2008,07,15,00,48,12.30
2008,07,15,00,49,12.30
2008,07,15,00,50,12.20
2008,07,15,00,51,12.20
2008,07,15,00,52,12.20
2008,07,15,00,53,12.20
2008,07,15,00,54,12.20
2008,07,15,00,55,12.20
2008,07,15,00,56,12.20
2008,07,15,00,57,12.30
2008,07,15,00,58,12.20
2008,07,15,00,59,12.20
2008,07,15,01,00,12.20
2008,07,15,01,01,12.20
2008,07,15,01,02,12.20
2008,07,15,01,03,12.20
2008,07,15,01,04,12.20
2008,07,15,01,05,12.20
2008,07,15,01,06,12.20
2008,07,15,01,07,12.20
2008,07,15,01,08,12.10
2008,07,15,01,09,12.10
2008,07,15,01,10,12.10
2008,07,15,01,11,12.10
2008,07,15,01,12,12.10
2008,07,15,01,13,12.10
2008,07,15,01,14,12.10
2008,07,15,01,15,12.10
2008,07,15,01,16,12.10
2008,07,15,01,17,12.10
2008,07,15,01,18,12.10
2008,07,15,01,19,12.10
2008,07,15,01,20,12.10
2008,07,15,01,21,12.10
2008,07,15,01,22,12.00
2008,07,15,01,23,12.00
2008,07,15,01,24,12.00
2008,07,15,01,25,12.00
2008,07,15,01,26,12.00
2008,07,15,01,27,11.90
2008,07,15,01,28,11.90
2008,07,15,01,29,11.90
2008,07,15,01,30,11.90
2008,07,15,01,31,12.00
2008,07,15,01,32,12.00
2008,07,15,01,33,12.00
2008,07,15,01,34,12.10
2008,07,15,01,35,12.10
2008,07,15,01,36,12.10
2008,07,15,01,37,12.20
2008,07,15,01,38,12.20
2008,07,15,01,39,12.20
2008,07,15,01,40,12.20
2008,07,15,01,41,12.20
2008,07,15,01,42,12.20
2008,07,15,01,43,12.30
2008,07,15,01,44,12.20
2008,07,15,01,45,12.20
2008,07,15,01,46,12.10
2008,07,15,01,47,12.10
2008,07,15,01,48,12.10
2008,07,15,01,49,12.00
2008,07,15,01,50,12.00
2008,07,15,01,51,12.00
2008,07,15,01,52,12.10
2008,07,15,01,53,12.00
2008,07,15,01,54,12.00
2008,07,15,01,55,12.00
2008,07,15,01,56,12.00
2008,07,15,01,57,12.00
2008,07,15,01,58,12.00
2008,07,15,01,59,11.90
2008,07,15,02,00,11.90
2008,07,15,02,01,11.90
2008,07,15,02,02,11.90
2008,07,15,02,03,11.90
2008,07,15,02,04,11.90
2008,07,15,02,05,12.00
2008,07,15,02,06,12.00
2008,07,15,02,07,12.10
2008,07,15,02,08,12.10
2008,07,15,02,09,12.10
2008,07,15,02,10,12.20
2008,07,15,02,11,12.20
2008,07,15,02,12,12.20
2008,07,15,02,13,12.20
2008,07,15,02,14,12.30
2008,07,15,02,15,12.20
2008,07,15,02,16,12.20
2008,07,15,02,17,12.10
2008,07,15,02,18,12.10
2008,07,15,02,19,12.00
2008,07,15,02,20,11.90
2008,07,15,02,21,11.90
2008,07,15,02,22,11.80
2008,07,15,02,23,11.80
2008,07,15,02,24,11.70
2008,07,15,02,25,11.70
2008,07,15,02,26,11.70
2008,07,15,02,27,11.60
2008,07,15,02,28,11.60
2008,07,15,02,29,11.60
2008,07,15,02,30,11.60
2008,07,15,02,31,11.60
2008,07,15,02,32,11.60
2008,07,15,02,33,11.50
2008,07,15,02,34,11.50
2008,07,15,02,35,11.40
2008,07,15,02,36,11.40
2008,07,15,02,37,11.40
2008,07,15,02,38,11.40
2008,07,15,02,39,11.40
2008,07,15,02,40,11.40
2008,07,15,02,41,11.30
2008,07,15,02,42,11.30
2008,07,15,02,43,11.30
2008,07,15,02,44,11.30
2008,07,15,02,45,11.30
2008,07,15,02,46,11.30
2008,07,15,02,47,11.30
2008,07,15,02,48,11.30
2008,07,15,02,49,11.20
2008,07,15,02,50,11.20
2008,07,15,02,51,11.20
2008,07,15,02,52,11.20
2008,07,15,02,53,11.20
2008,07,15,02,54,11.20
2008,07,15,02,55,11.20
2008,07,15,02,56,11.20
2008,07,15,02,57,11.20
2008,07,15,02,58,11.20
2008,07,15,02,59,11.20
2008,07,15,03,00,11.10
2008,07,15,03,01,11.10
2008,07,15,03,02,11.10
2008,07,15,03,03,11.10
2008,07,15,03,04,11.10
2008,07,15,03,05,11.10
2008,07,15,03,06,11.10
2008,07,15,03,07,11.00
2008,07,15,03,08,11.00
2008,07,15,03,09,11.00
2008,07,15,03,10,11.00
2008,07,15,03,11,10.90
2008,07,15,03,12,10.90
2008,07,15,03,13,10.90
2008,07,15,03,14,10.90
2008,07,15,03,15,10.90
2008,07,15,03,16,10.90
2008,07,15,03,17,10.90
2008,07,15,03,18,10.90
2008,07,15,03,19,10.90
2008,07,15,03,20,10.90
2008,07,15,03,21,10.80
2008,07,15,03,22,10.80
2008,07,15,03,23,10.80
2008,07,15,03,24,10.80
2008,07,15,03,25,10.80
2008,07,15,03,26,10.70
2008,07,15,03,27,10.70
2008,07,15,03,28,10.70
2008,07,15,03,29,10.70
2008,07,15,03,30,10.60
2008,07,15,03,31,10.60
2008,07,15,03,32,10.60
2008,07,15,03,33,10.60
2008,07,15,03,34,10.50
2008,07,15,03,35,10.50
2008,07,15,03,36,10.40
2008,07,15,03,37,10.40
2008,07,15,03,38,10.40
2008,07,15,03,39,10.40
2008,07,15,03,40,10.40
2008,07,15,03,41,10.40
2008,07,15,03,42,10.40
2008,07,15,03,43,10.40
2008,07,15,03,44,10.40
2008,07,15,03,45,10.40
2008,07,15,03,46,10.40
2008,07,15,03,47,10.40
2008,07,15,03,48,10.50
2008,07,15,03,49,10.50
2008,07,15,03,50,10.60
2008,07,15,03,51,10.60
2008,07,15,03,52,10.70
2008,07,15,03,53,10.80
2008,07,15,03,54,10.90
2008,07,15,03,55,10.90
2008,07,15,03,56,11.00
2008,07,15,03,57,11.10
2008,07,15,03,58,11.20
2008,07,15,03,59,11.20
2008,07,15,04,00,11.20
2008,07,15,04,01,11.20
2008,07,15,04,02,11.20
2008,07,15,04,03,11.20
2008,07,15,04,04,11.20
2008,07,15,04,05,11.20
2008,07,15,04,06,11.20
2008,07,15,04,07,11.10
2008,07,15,04,08,11.10
2008,07,15,04,09,11.10
2008,07,15,04,10,11.00
2008,07,15,04,11,11.00
2008,07,15,04,12,11.00
2008,07,15,04,13,11.00
2008,07,15,04,14,11.00
2008,07,15,04,15,10.90
2008,07,15,04,16,10.90
2008,07,15,04,17,10.90
2008,07,15,04,18,10.90
2008,07,15,04,19,11.00
2008,07,15,04,20,11.00
2008,07,15,04,21,11.00
2008,07,15,04,22,11.00
2008,07,15,04,23,11.10
2008,07,15,04,24,11.10
2008,07,15,04,25,11.10
2008,07,15,04,26,11.10
2008,07,15,04,27,11.10
2008,07,15,04,28,11.20
2008,07,15,04,29,11.20
2008,07,15,04,30,11.20
2008,07,15,04,31,11.20
2008,07,15,04,32,11.20
2008,07,15,04,33,11.20
2008,07,15,04,34,11.20
2008,07,15,04,35,11.20
2008,07,15,04,36,11.20
2008,07,15,04,37,11.20
2008,07,15,04,38,11.20
2008,07,15,04,39,11.10
2008,07,15,04,40,11.10
2008,07,15,04,41,11.00
2008,07,15,04,42,11.00
2008,07,15,04,43,10.90
2008,07,15,04,44,10.80
2008,07,15,04,45,10.80
2008,07,15,04,46,10.70
2008,07,15,04,47,10.70
2008,07,15,04,48,10.60
2008,07,15,04,49,10.60
2008,07,15,04,50,10.50
2008,07,15,04,51,10.50
2008,07,15,04,52,10.40
2008,07,15,04,53,10.40
2008,07,15,04,54,10.30
2008,07,15,04,55,10.30
2008,07,15,04,56,10.30
2008,07,15,04,57,10.20
2008,07,15,04,58,10.10
2008,07,15,04,59,10.10
2008,07,15,05,00,10.00
2008,07,15,05,01,10.00
2008,07,15,05,02,9.90
2008,07,15,05,03,9.90
2008,07,15,05,04,9.80
2008,07,15,05,05,9.80
2008,07,15,05,06,9.70
2008,07,15,05,07,9.70
2008,07,15,05,08,9.60
2008,07,15,05,09,9.60
2008,07,15,05,10,9.60
2008,07,15,05,11,9.50
2008,07,15,05,12,9.50
2008,07,15,05,13,9.40
2008,07,15,05,14,9.40
2008,07,15,05,15,9.40
2008,07,15,05,16,9.30
2008,07,15,05,17,9.30
2008,07,15,05,18,9.30
2008,07,15,05,19,9.30
2008,07,15,05,20,9.30
2008,07,15,05,21,9.30
2008,07,15,05,22,9.30
2008,07,15,05,23,9.30
2008,07,15,05,24,9.30
2008,07,15,05,25,9.20
2008,07,15,05,26,9.20
2008,07,15,05,27,9.20
2008,07,15,05,28,9.20
2008,07,15,05,29,9.20
2008,07,15,05,30,9.20
2008,07,15,05,31,9.20
2008,07,15,05,32,9.20
2008,07,15,05,33,9.20
2008,07,15,05,34,9.20
2008,07,15,05,35,9.20
2008,07,15,05,36,9.20
2008,07,15,05,37,9.20
2008,07,15,05,38,9.20
2008,07,15,05,39,9.20
2008,07,15,05,40,9.10
2008,07,15,05,41,9.10
2008,07,15,05,42,9.10
2008,07,15,05,43,9.10
2008,07,15,05,44,9.10
2008,07,15,05,45,9.10
2008,07,15,05,46,9.10
2008,07,15,05,47,9.10
2008,07,15,05,48,9.10
2008,07,15,05,49,9.10
2008,07,15,05,50,9.10
2008,07,15,05,51,9.10
2008,07,15,05,52,9.10
2008,07,15,05,53,9.00
2008,07,15,05,54,9.00
2008,07,15,05,55,9.00
2008,07,15,05,56,9.00
2008,07,15,05,57,9.00
2008,07,15,05,58,9.10
2008,07,15,05,59,9.10
2008,07,15,06,00,9.20
2008,07,15,06,01,9.20
2008,07,15,06,02,9.20
2008,07,15,06,03,9.30
2008,07,15,06,04,9.30
2008,07,15,06,05,9.40
2008,07,15,06,06,9.40
2008,07,15,06,07,9.40
2008,07,15,06,08,9.50
2008,07,15,06,09,9.50
2008,07,15,06,10,9.60
2008,07,15,06,11,9.60
2008,07,15,06,12,9.60
2008,07,15,06,13,9.70
2008,07,15,06,14,9.70
2008,07,15,06,15,9.70
2008,07,15,06,16,9.70
2008,07,15,06,17,9.70
2008,07,15,06,18,9.70
2008,07,15,06,19,9.70
2008,07,15,06,20,9.80
2008,07,15,06,21,9.70
2008,07,15,06,22,9.70
2008,07,15,06,23,9.70
2008,07,15,06,24,9.70
2008,07,15,06,25,9.70
2008,07,15,06,26,9.70
2008,07,15,06,27,9.70
2008,07,15,06,28,9.70
2008,07,15,06,29,9.70
2008,07,15,06,30,9.60
2008,07,15,06,31,9.60
2008,07,15,06,32,9.60
2008,07,15,06,33,9.60
2008,07,15,06,34,9.60
2008,07,15,06,35,9.70
2008,07,15,06,36,9.70
2008,07,15,06,37,9.70
2008,07,15,06,38,9.70
2008,07,15,06,39,9.70
2008,07,15,06,40,9.70
2008,07,15,06,41,9.80
2008,07,15,06,42,9.80
2008,07,15,06,43,9.80
2008,07,15,06,44,9.80
2008,07,15,06,45,9.80
2008,07,15,06,46,9.80
2008,07,15,06,47,9.90
2008,07,15,06,48,9.90
2008,07,15,06,49,10.00
2008,07,15,06,50,10.00
2008,07,15,06,51,10.10
2008,07,15,06,52,10.10
2008,07,15,06,53,10.20
2008,07,15,06,54,10.30
2008,07,15,06,55,10.30
2008,07,15,06,56,10.30
2008,07,15,06,57,10.40
2008,07,15,06,58,10.40
2008,07,15,06,59,10.40
2008,07,15,07,00,10.50
2008,07,15,07,01,10.60
2008,07,15,07,02,10.60
2008,07,15,07,03,10.70
2008,07,15,07,04,10.80
2008,07,15,07,05,10.80
2008,07,15,07,06,10.80
2008,07,15,07,07,10.80
2008,07,15,07,08,10.90
2008,07,15,07,09,10.90
2008,07,15,07,10,11.00
2008,07,15,07,11,11.00
2008,07,15,07,12,11.10
2008,07,15,07,13,11.10
2008,07,15,07,14,11.20
2008,07,15,07,15,11.30
2008,07,15,07,16,11.30
2008,07,15,07,17,11.40
2008,07,15,07,18,11.50
2008,07,15,07,19,11.50
2008,07,15,07,20,11.60
2008,07,15,07,21,11.60
2008,07,15,07,22,11.70
2008,07,15,07,23,11.80
2008,07,15,07,24,11.80
2008,07,15,07,25,11.90
2008,07,15,07,26,12.00
2008,07,15,07,27,12.10
2008,07,15,07,28,12.10
2008,07,15,07,29,12.20
2008,07,15,07,30,12.20
2008,07,15,07,31,12.30
2008,07,15,07,32,12.40
2008,07,15,07,33,12.50
2008,07,15,07,34,12.70
2008,07,15,07,35,12.80
2008,07,15,07,36,12.90
2008,07,15,07,37,13.00
2008,07,15,07,38,13.10
2008,07,15,07,39,13.30
2008,07,15,07,40,13.40
2008,07,15,07,41,13.50
2008,07,15,07,42,13.60
2008,07,15,07,43,13.60
2008,07,15,07,44,13.70
2008,07,15,07,45,13.80
2008,07,15,07,46,13.90
2008,07,15,07,47,13.90
2008,07,15,07,48,14.00
2008,07,15,07,49,14.10
2008,07,15,07,50,14.20
2008,07,15,07,51,14.30
2008,07,15,07,52,14.30
2008,07,15,07,53,14.40
2008,07,15,07,54,14.50
2008,07,15,07,55,14.60
2008,07,15,07,56,14.70
2008,07,15,07,57,14.70
2008,07,15,07,58,14.80
2008,07,15,07,59,14.90
2008,07,15,08,00,15.00
2008,07,15,08,01,15.00
2008,07,15,08,02,15.00
2008,07,15,08,03,15.00
2008,07,15,08,04,15.00
2008,07,15,08,05,15.10
2008,07,15,08,06,15.20
2008,07,15,08,07,15.30
2008,07,15,08,08,15.40
2008,07,15,08,09,15.40
2008,07,15,08,10,15.40
2008,07,15,08,11,15.50
2008,07,15,08,12,15.50
2008,07,15,08,13,15.60
2008,07,15,08,14,15.60
2008,07,15,08,15,15.70
2008,07,15,08,16,15.80
2008,07,15,08,17,15.90
2008,07,15,08,18,16.10
2008,07,15,08,19,16.20
2008,07,15,08,20,16.30
2008,07,15,08,21,16.40
2008,07,15,08,22,16.50
2008,07,15,08,23,16.50
2008,07,15,08,24,16.60
2008,07,15,08,25,16.80
2008,07,15,08,26,16.90
2008,07,15,08,27,17.00
2008,07,15,08,28,17.10
2008,07,15,08,29,17.20
2008,07,15,08,30,17.20
2008,07,15,08,31,17.30
2008,07,15,08,32,17.30
2008,07,15,08,33,17.30
2008,07,15,08,34,17.40
2008,07,15,08,35,17.40
2008,07,15,08,36,17.50
2008,07,15,08,37,17.60
2008,07,15,08,38,17.70
2008,07,15,08,39,17.80
2008,07,15,08,40,17.80
2008,07,15,08,41,17.90
2008,07,15,08,42,17.90
2008,07,15,08,43,17.90
2008,07,15,08,44,18.00
2008,07,15,08,45,18.10
2008,07,15,08,46,18.20
2008,07,15,08,47,18.30
2008,07,15,08,48,18.40
2008,07,15,08,49,18.50
2008,07,15,08,50,18.50
2008,07,15,08,51,18.50
2008,07,15,08,52,18.50
2008,07,15,08,53,18.60
2008,07,15,08,54,18.70
2008,07,15,08,55,18.90
2008,07,15,08,56,18.90
2008,07,15,08,57,18.90
2008,07,15,08,58,18.90
2008,07,15,08,59,18.90
2008,07,15,09,00,19.00
2008,07,15,09,01,19.10
2008,07,15,09,02,19.10
2008,07,15,09,03,19.20
2008,07,15,09,04,19.20
2008,07,15,09,05,19.20
2008,07,15,09,06,19.20
2008,07,15,09,07,19.20
2008,07,15,09,08,19.10
2008,07,15,09,09,19.00
2008,07,15,09,10,18.90
2008,07,15,09,11,18.90
2008,07,15,09,12,18.80
2008,07,15,09,13,18.80
2008,07,15,09,14,18.80
2008,07,15,09,15,18.90
2008,07,15,09,16,19.00
2008,07,15,09,17,19.00
2008,07,15,09,18,19.00
2008,07,15,09,19,18.90
2008,07,15,09,20,18.90
2008,07,15,09,21,18.90
2008,07,15,09,22,18.90
2008,07,15,09,23,19.00
2008,07,15,09,24,19.00
2008,07,15,09,25,19.10
2008,07,15,09,26,19.10
2008,07,15,09,27,19.10
2008,07,15,09,28,19.00
2008,07,15,09,29,18.90
2008,07,15,09,30,18.80
2008,07,15,09,31,18.70
2008,07,15,09,32,18.60
2008,07,15,09,33,18.60
2008,07,15,09,34,18.60
2008,07,15,09,35,18.60
2008,07,15,09,36,18.70
2008,07,15,09,37,18.80
2008,07,15,09,38,18.80
2008,07,15,09,39,18.90
2008,07,15,09,40,18.90
2008,07,15,09,41,19.00
2008,07,15,09,42,19.00
2008,07,15,09,43,19.00
2008,07,15,09,44,19.10
2008,07,15,09,45,19.00
2008,07,15,09,46,18.90
2008,07,15,09,47,18.90
2008,07,15,09,48,19.00
2008,07,15,09,49,19.10
2008,07,15,09,50,19.10
2008,07,15,09,51,19.10
2008,07,15,09,52,19.00
2008,07,15,09,53,18.90
2008,07,15,09,54,18.90
2008,07,15,09,55,18.90
2008,07,15,09,56,18.90
2008,07,15,09,57,18.90
2008,07,15,09,58,18.90
2008,07,15,09,59,18.90
2008,07,15,10,00,19.00
2008,07,15,10,01,19.10
2008,07,15,10,02,19.20
2008,07,15,10,03,19.40
2008,07,15,10,04,19.50
2008,07,15,10,05,19.50
2008,07,15,10,06,19.40
2008,07,15,10,07,19.40
2008,07,15,10,08,19.50
2008,07,15,10,09,19.50
2008,07,15,10,10,19.50
2008,07,15,10,11,19.60
2008,07,15,10,12,19.60
2008,07,15,10,13,19.70
2008,07,15,10,14,19.70
2008,07,15,10,15,19.80
2008,07,15,10,16,19.90
2008,07,15,10,17,19.80
2008,07,15,10,18,19.70
2008,07,15,10,19,19.70
2008,07,15,10,20,19.80
2008,07,15,10,21,19.80
2008,07,15,10,22,19.90
2008,07,15,10,23,19.90
2008,07,15,10,24,20.00
2008,07,15,10,25,20.00
2008,07,15,10,26,20.00
2008,07,15,10,27,20.00
2008,07,15,10,28,20.00
2008,07,15,10,29,20.10
2008,07,15,10,30,20.10
2008,07,15,10,31,20.20
2008,07,15,10,32,20.20
2008,07,15,10,33,20.20
2008,07,15,10,34,20.20
2008,07,15,10,35,20.10
2008,07,15,10,36,20.00
2008,07,15,10,37,19.90
2008,07,15,10,38,19.80
2008,07,15,10,39,19.90
2008,07,15,10,40,20.00
2008,07,15,10,41,20.10
2008,07,15,10,42,20.20
2008,07,15,10,43,20.20
2008,07,15,10,44,20.20
2008,07,15,10,45,20.30
2008,07,15,10,46,20.40
2008,07,15,10,47,20.40
2008,07,15,10,48,20.50
2008,07,15,10,49,20.50
2008,07,15,10,50,20.40
2008,07,15,10,51,20.30
2008,07,15,10,52,20.30
2008,07,15,10,53,20.40
2008,07,15,10,54,20.30
2008,07,15,10,55,20.20
2008,07,15,10,56,20.10
2008,07,15,10,57,19.90
2008,07,15,10,58,19.80
2008,07,15,10,59,19.80
2008,07,15,11,00,19.80
2008,07,15,11,01,19.80
2008,07,15,11,02,19.80
2008,07,15,11,03,19.90
2008,07,15,11,04,20.00
2008,07,15,11,05,20.10
2008,07,15,11,06,20.20
2008,07,15,11,07,20.20
2008,07,15,11,08,20.20
2008,07,15,11,09,20.30
2008,07,15,11,10,20.30
2008,07,15,11,11,20.40
2008,07,15,11,12,20.40
2008,07,15,11,13,20.40
2008,07,15,11,14,20.50
2008,07,15,11,15,20.70
2008,07,15,11,16,20.90
2008,07,15,11,17,21.10
2008,07,15,11,18,21.20
2008,07,15,11,19,21.30
2008,07,15,11,20,21.30
2008,07,15,11,21,21.30
2008,07,15,11,22,21.10
2008,07,15,11,23,20.90
2008,07,15,11,24,20.80
2008,07,15,11,25,20.70
2008,07,15,11,26,20.60
2008,07,15,11,27,20.60
2008,07,15,11,28,20.50
2008,07,15,11,29,20.40
2008,07,15,11,30,20.30
2008,07,15,11,31,20.30
2008,07,15,11,32,20.30
2008,07,15,11,33,20.20
2008,07,15,11,34,20.10
2008,07,15,11,35,20.00
2008,07,15,11,36,20.10
2008,07,15,11,37,20.10
2008,07,15,11,38,20.10
2008,07,15,11,39,20.20
2008,07,15,11,40,20.20
2008,07,15,11,41,20.10
2008,07,15,11,42,20.10
2008,07,15,11,43,20.30
2008,07,15,11,44,20.40
2008,07,15,11,45,20.40
2008,07,15,11,46,20.30
2008,07,15,11,47,20.20
2008,07,15,11,48,20.10
2008,07,15,11,49,20.00
2008,07,15,11,50,19.80
2008,07,15,11,51,19.80
2008,07,15,11,52,19.80
2008,07,15,11,53,19.90
2008,07,15,11,54,19.90
2008,07,15,11,55,19.90
2008,07,15,11,56,19.90
2008,07,15,11,57,19.90
2008,07,15,11,58,19.90
2008,07,15,11,59,19.90
2008,07,15,12,00,19.90
2008,07,15,12,01,20.00
2008,07,15,12,02,20.10
2008,07,15,12,03,20.30
2008,07,15,12,04,20.40
2008,07,15,12,05,20.40
2008,07,15,12,06,20.30
2008,07,15,12,07,20.20
2008,07,15,12,08,20.10
2008,07,15,12,09,20.00
2008,07,15,12,10,19.90
2008,07,15,12,11,20.00
2008,07,15,12,12,20.20
2008,07,15,12,13,20.20
2008,07,15,12,14,20.30
2008,07,15,12,15,20.30
2008,07,15,12,16,20.30
2008,07,15,12,17,20.40
2008,07,15,12,18,20.50
2008,07,15,12,19,20.40
2008,07,15,12,20,20.30
2008,07,15,12,21,20.30
2008,07,15,12,22,20.20
2008,07,15,12,23,20.20
2008,07,15,12,24,20.30
2008,07,15,12,25,20.30
2008,07,15,12,26,20.30
2008,07,15,12,27,20.30
2008,07,15,12,28,20.20
2008,07,15,12,29,20.20
2008,07,15,12,30,20.30
2008,07,15,12,31,20.40
2008,07,15,12,32,20.50
2008,07,15,12,33,20.50
2008,07,15,12,34,20.40
2008,07,15,12,35,20.20
2008,07,15,12,36,20.20
2008,07,15,12,37,20.20
2008,07,15,12,38,20.20
2008,07,15,12,39,20.30
2008,07,15,12,40,20.40
2008,07,15,12,41,20.50
2008,07,15,12,42,20.60
2008,07,15,12,43,20.60
2008,07,15,12,44,20.60
2008,07,15,12,45,20.60
2008,07,15,12,46,20.70
2008,07,15,12,47,20.70
2008,07,15,12,48,20.90
2008,07,15,12,49,21.00
2008,07,15,12,50,21.00
2008,07,15,12,51,21.00
2008,07,15,12,52,20.90
2008,07,15,12,53,20.90
2008,07,15,12,54,20.80
2008,07,15,12,55,20.70
2008,07,15,12,56,20.70
2008,07,15,12,57,20.70
2008,07,15,12,58,20.80
2008,07,15,12,59,20.80
2008,07,15,13,00,20.70
2008,07,15,13,01,20.60
2008,07,15,13,02,20.50
2008,07,15,13,03,20.40
2008,07,15,13,04,20.40
2008,07,15,13,05,20.40
2008,07,15,13,06,20.30
2008,07,15,13,07,20.40
2008,07,15,13,08,20.40
2008,07,15,13,09,20.40
2008,07,15,13,10,20.50
2008,07,15,13,11,20.50
2008,07,15,13,12,20.40
2008,07,15,13,13,20.30
2008,07,15,13,14,20.50
2008,07,15,13,15,20.50
2008,07,15,13,16,20.50
2008,07,15,13,17,20.40
2008,07,15,13,18,20.40
2008,07,15,13,19,20.50
2008,07,15,13,20,20.50
2008,07,15,13,21,20.40
2008,07,15,13,22,20.30
2008,07,15,13,23,20.10
2008,07,15,13,24,20.10
2008,07,15,13,25,20.10
2008,07,15,13,26,20.20
2008,07,15,13,27,20.30
2008,07,15,13,28,20.30
2008,07,15,13,29,20.40
2008,07,15,13,30,20.40
2008,07,15,13,31,20.40
2008,07,15,13,32,20.50
2008,07,15,13,33,20.60
2008,07,15,13,34,20.60
2008,07,15,13,35,20.60
2008,07,15,13,36,20.60
2008,07,15,13,37,20.70
2008,07,15,13,38,20.60
2008,07,15,13,39,20.60
2008,07,15,13,40,20.50
2008,07,15,13,41,20.50
2008,07,15,13,42,20.50
2008,07,15,13,43,20.70
2008,07,15,13,44,20.80
2008,07,15,13,45,20.90
2008,07,15,13,46,20.90
2008,07,15,13,47,21.00
2008,07,15,13,48,21.00
2008,07,15,13,49,21.10
2008,07,15,13,50,21.20
2008,07,15,13,51,21.20
2008,07,15,13,52,21.20
2008,07,15,13,53,21.20
2008,07,15,13,54,21.30
2008,07,15,13,55,21.30
2008,07,15,13,56,21.40
2008,07,15,13,57,21.40
2008,07,15,13,58,21.50
2008,07,15,13,59,21.50
2008,07,15,14,00,21.50
2008,07,15,14,01,21.40
2008,07,15,14,02,21.30
2008,07,15,14,03,21.20
2008,07,15,14,04,21.10
2008,07,15,14,05,21.00
2008,07,15,14,06,20.90
2008,07,15,14,07,20.90
2008,07,15,14,08,20.90
2008,07,15,14,09,20.90
2008,07,15,14,10,20.90
2008,07,15,14,11,21.00
2008,07,15,14,12,21.10
2008,07,15,14,13,21.10
2008,07,15,14,14,21.10
2008,07,15,14,15,21.10
2008,07,15,14,16,21.00
2008,07,15,14,17,20.90
2008,07,15,14,18,20.80
2008,07,15,14,19,20.80
2008,07,15,14,20,20.80
2008,07,15,14,21,20.80
2008,07,15,14,22,21.00
2008,07,15,14,23,21.10
2008,07,15,14,24,21.30
2008,07,15,14,25,21.50
2008,07,15,14,26,21.70
2008,07,15,14,27,21.80
2008,07,15,14,28,21.80
2008,07,15,14,29,21.70
2008,07,15,14,30,21.60
2008,07,15,14,31,21.60
2008,07,15,14,32,21.50
2008,07,15,14,33,21.50
2008,07,15,14,34,21.40
2008,07,15,14,35,21.30
2008,07,15,14,36,21.20
2008,07,15,14,37,21.20
2008,07,15,14,38,21.20
2008,07,15,14,39,21.30
2008,07,15,14,40,21.40
2008,07,15,14,41,21.30
2008,07,15,14,42,21.40
2008,07,15,14,43,21.50
2008,07,15,14,44,21.70
2008,07,15,14,45,21.70
2008,07,15,14,46,21.60
2008,07,15,14,47,21.60
2008,07,15,14,48,21.70
2008,07,15,14,49,21.70
2008,07,15,14,50,21.80
2008,07,15,14,51,21.80
2008,07,15,14,52,21.80
2008,07,15,14,53,21.60
2008,07,15,14,54,21.60
2008,07,15,14,55,21.60
2008,07,15,14,56,21.60
2008,07,15,14,57,21.50
2008,07,15,14,58,21.50
2008,07,15,14,59,21.70
2008,07,15,15,00,21.80
2008,07,15,15,01,21.80
2008,07,15,15,02,21.80
2008,07,15,15,03,21.80
2008,07,15,15,04,21.70
2008,07,15,15,05,21.50
2008,07,15,15,06,21.50
2008,07,15,15,07,21.60
2008,07,15,15,08,21.80
2008,07,15,15,09,21.90
2008,07,15,15,10,22.10
2008,07,15,15,11,22.30
2008,07,15,15,12,22.40
2008,07,15,15,13,22.60
2008,07,15,15,14,22.70
2008,07,15,15,15,22.80
2008,07,15,15,16,23.00
2008,07,15,15,17,23.10
2008,07,15,15,18,23.20
2008,07,15,15,19,23.10
2008,07,15,15,20,23.10
2008,07,15,15,21,22.90
2008,07,15,15,22,22.90
2008,07,15,15,23,22.80
2008,07,15,15,24,22.80
2008,07,15,15,25,22.70
2008,07,15,15,26,22.80
2008,07,15,15,27,22.80
2008,07,15,15,28,22.90
2008,07,15,15,29,22.90
2008,07,15,15,30,22.90
2008,07,15,15,31,22.90
2008,07,15,15,32,23.00
2008,07,15,15,33,23.20
2008,07,15,15,34,23.30
2008,07,15,15,35,23.50
2008,07,15,15,36,23.70
2008,07,15,15,37,23.90
2008,07,15,15,38,24.00
2008,07,15,15,39,24.10
2008,07,15,15,40,24.20
2008,07,15,15,41,24.20
2008,07,15,15,42,24.20
2008,07,15,15,43,24.10
2008,07,15,15,44,24.10
2008,07,15,15,45,24.00
2008,07,15,15,46,23.70
2008,07,15,15,47,23.50
2008,07,15,15,48,23.40
2008,07,15,15,49,23.30
2008,07,15,15,50,23.10
2008,07,15,15,51,22.90
2008,07,15,15,52,22.90
2008,07,15,15,53,22.90
2008,07,15,15,54,22.90
2008,07,15,15,55,22.90
2008,07,15,15,56,22.80
2008,07,15,15,57,22.70
2008,07,15,15,58,22.50
2008,07,15,15,59,22.40
2008,07,15,16,00,22.40
2008,07,15,16,01,22.30
2008,07,15,16,02,22.30
2008,07,15,16,03,22.20
2008,07,15,16,04,22.30
2008,07,15,16,05,22.30
2008,07,15,16,06,22.30
2008,07,15,16,07,22.40
2008,07,15,16,08,22.50
2008,07,15,16,09,22.70
2008,07,15,16,10,22.80
2008,07,15,16,11,23.00
2008,07,15,16,12,23.30
2008,07,15,16,13,23.50
2008,07,15,16,14,23.70
2008,07,15,16,15,23.80
2008,07,15,16,16,23.80
2008,07,15,16,17,23.80
2008,07,15,16,18,23.90
2008,07,15,16,19,23.90
2008,07,15,16,20,23.80
2008,07,15,16,21,23.90
2008,07,15,16,22,23.90
2008,07,15,16,23,24.10
2008,07,15,16,24,24.40
2008,07,15,16,25,24.60
2008,07,15,16,26,24.90
2008,07,15,16,27,25.00
2008,07,15,16,28,25.30
2008,07,15,16,29,25.50
2008,07,15,16,30,25.50
2008,07,15,16,31,25.60
2008,07,15,16,32,25.70
2008,07,15,16,33,25.80
2008,07,15,16,34,25.70
2008,07,15,16,35,25.60
2008,07,15,16,36,25.50
2008,07,15,16,37,25.40
2008,07,15,16,38,25.40
2008,07,15,16,39,25.40
2008,07,15,16,40,25.50
2008,07,15,16,41,25.50
2008,07,15,16,42,25.50
2008,07,15,16,43,25.50
2008,07,15,16,44,25.60
2008,07,15,16,45,25.60
2008,07,15,16,46,25.60
2008,07,15,16,47,25.60
2008,07,15,16,48,25.60
2008,07,15,16,49,25.50
2008,07,15,16,50,25.50
2008,07,15,16,51,25.40
2008,07,15,16,52,25.40
2008,07,15,16,53,25.50
2008,07,15,16,54,25.60
2008,07,15,16,55,25.70
2008,07,15,16,56,25.80
2008,07,15,16,57,25.80
2008,07,15,16,58,25.80
2008,07,15,16,59,25.80
2008,07,15,17,00,25.80
2008,07,15,17,01,25.90
2008,07,15,17,02,25.90
2008,07,15,17,03,25.90
2008,07,15,17,04,26.00
2008,07,15,17,05,25.90
2008,07,15,17,06,25.90
2008,07,15,17,07,25.80
2008,07,15,17,08,25.70
2008,07,15,17,09,25.60
2008,07,15,17,10,25.60
2008,07,15,17,11,25.60
2008,07,15,17,12,25.60
2008,07,15,17,13,25.70
2008,07,15,17,14,25.70
2008,07,15,17,15,25.70
2008,07,15,17,16,25.70
2008,07,15,17,17,25.60
2008,07,15,17,18,25.60
2008,07,15,17,19,25.60
2008,07,15,17,20,25.70
2008,07,15,17,21,25.80
2008,07,15,17,22,25.80
2008,07,15,17,23,25.80
2008,07,15,17,24,25.70